Regional Weather Roundup
Issued by NWS

Home | Current Version | Previous Version | Text Only | Print | Product List | Glossary Off
Versions: 1 2 3 4 5 6 7 8 9 10 11 12 13 14 15 16 17 18 19 20 21 22 23 24 25 26 27 28 29 30 31 32 33 34 35 36 37 38 39 40 41 42 43 44 45 46 47 48 49 50

000
ASUS43 KMPX 162210
RWRMN
WEATHER ROUNDUP FOR MINNESOTA
NATIONAL WEATHER SERVICE TWIN CITIES/CHANHASSEN MN
400 PM CST SAT DEC 16 2017


NOTE: "FAIR" INDICATES FEW OR NO CLOUDS BELOW 12,000 FEET WITH NO
SIGNIFICANT WEATHER AND/OR OBSTRUCTIONS TO VISIBILITY. N/A MEANS
CURRENT SKY AND/OR WEATHER CONDITIONS ARE NOT AVAILABLE.

MNZ060>063-068>070-162300-
   Twin Cities Metro

CITY           SKY/WX    TMP DP  RH WIND       PRES   REMARKS
TWIN CITIES    CLOUDY    29  23  78 CALM      29.99R
ST PAUL        CLOUDY    28  21  75 E7        30.01R WCI  21
CRYSTAL        CLOUDY    28  20  71 NE5       29.98R WCI  23
BLAINE         CLOUDY    28  23  80 NE6       29.97R WCI  22
LAKEVILLE      CLOUDY    27  25  93 NE3       29.98R FOG
EDEN PRAIRIE   CLOUDY    30  24  78 NE3       29.97R
SOUTH ST PAUL  CLOUDY    29  22  73 E3        29.99R
LAKE ELMO      CLOUDY    28  21  74 E5        30.00R WCI  23
$$
MNZ001>005-007-008-013>017-022>024-027-028-162300-
   Northwest Minnesota

CITY           SKY/WX    TMP DP  RH WIND       PRES   REMARKS
BEMIDJI        CLOUDY    23  19  84 S5        29.94R WCI  16
HALLOCK        CLOUDY    23  21  93 W5        29.95R WCI  17
ROSEAU         CLOUDY    18  12  79 CALM      29.94R FOG
WARROAD        LGT SNOW  16  10  79 E3        29.94R
THIEF RVR FALL CLOUDY    23  22  96 W8        29.95R WCI  14
CROOKSTON      MOCLDY    27  25  93 NW6       29.96R WCI  20
FOSSTON        CLOUDY    25  23  93 W7        29.95R FOG     WCI  17
DETROIT LAKES  CLOUDY    30  28  93 W5        29.96R WCI  25
MOORHEAD       CLOUDY    30  27  86 CALM      29.98R
PARK RAPIDS    CLOUDY    24  19  81 S6        29.94R WCI  17
MAHNOMEN       CLOUDY    27  26  96 W7        29.95R FOG     WCI  19
$$
MNZ006-009>011-018-025>026-162300-
   North Central Minnesota

CITY           SKY/WX    TMP DP  RH WIND       PRES   REMARKS
BAUDETTE       CLOUDY    10   8  92 SE7       29.95R FOG     WCI  -1
FLAG ISLAND    LGT SNOW   9   7  92 SE3       29.95R
INTL FALLS     CLOUDY    10   6  84 SE6       29.97R FOG     WCI   0
WASKISH        CLOUDY    19  18  93 S3        29.95R
BIG FORK       CLOUDY    19  16  86 CALM      29.96R
LONGVILLE      CLOUDY    23  16  74 SE3       29.96R
GRAND RAPIDS   CLOUDY    21  15  78 SE8       29.98R WCI  11
CRANE LAKE     CLOUDY    12   9  85 CALM      30.01S FOG
ORR            CLOUDY    16  10  79 SE3       29.94R
COOK           CLOUDY    14  10  85 CALM      29.98R
WALKER         CLOUDY    22  17  78 S5        29.95R WCI  16
$$
MNZ012-019>021-037-162300-
   Northeast Minnesota

CITY           SKY/WX    TMP DP  RH WIND       PRES   REMARKS
DULUTH         CLOUDY    20  15  81 E10       29.98R WCI   9
ELY            CLOUDY    18  14  86 CALM      29.99R
HIBBING        CLOUDY    19  15  84 SE7       29.98R WCI  10
EVELETH        MOCLDY    20  14  77 SE6       29.99R WCI  12
DULUTH HARBOR  CLOUDY    25  16  68 E13       30.04R WCI  13
TWO HARBORS    CLOUDY    27  18  69 E7        29.99R WCI  19
SILVER BAY     CLOUDY    23  18  80 E7        30.01R WCI  15
GRAND MARAIS     N/A     20  14  77 NE7       30.09R WCI  11
G MARAIS ARPRT CLOUDY    12   9  85 E3        30.00R
$$
MNZ029>031-032-039>041-046>048-054>057-064-162300-
   West Central Minnesota

CITY           SKY/WX    TMP DP  RH WIND       PRES   REMARKS
FERGUS FALLS   CLOUDY    28  27  93 W3        30.00R
WHEATON        CLOUDY    34  28  80 NW3       29.99R
MORRIS         CLOUDY    32  28  86 N6        29.95R WCI  26
ALEXANDRIA     CLOUDY    28  25  88 N5        29.95R WCI  23
ELBOW LAKE     MOCLDY    28  26  89 NW5       29.96R FOG     WCI  23
WADENA         CLOUDY    25  21  86 CALM      29.96R
GLENWOOD       PTCLDY    28  27  93 N6        29.95R WCI  22
APPLETON       PTCLDY    34  28  80 CALM      29.96R
BENSON         PTCLDY    30  27  86 NE3       29.98R
ORTONVILLE     CLOUDY    34  28  80 N8        29.95R WCI  27
MADISON        CLOUDY    37  32  81 N5        29.96R
WILLMAR        MOCLDY    30  27  86 NE6       29.98R WCI  24
$$
MNZ033>034-036-042>043-049>051-058-059-162300-
   Central Minnesota

CITY           SKY/WX    TMP DP  RH WIND       PRES   REMARKS
ST CLOUD       CLOUDY    25  20  81 NE3       29.98R
SAUK CENTRE    CLOUDY    27  24  87 N7        29.96R WCI  19
PAYNESVILLE    CLOUDY    27  26  96 NE6       29.97R FOG     WCI  20
AITKIN         CLOUDY    21  16  79 CALM      29.96R
PINE RIVER     CLOUDY    21  16  79 CALM      30.00R
BRAINERD       CLOUDY    24  18  77 S5        29.97R WCI  18
STAPLES        CLOUDY    25  19  80 CALM      29.97R
LITTLE FALLS   CLOUDY    27  18  69 CALM      29.98R
LITCHFIELD     CLOUDY    28  27  93 CALM      29.98R
BUFFALO        CLOUDY    27  23  84 N3        29.99R
MAPLE LAKE     CLOUDY    28  24  86 N7        29.99R WCI  21
HUTCHINSON     CLOUDY    30  26  86 NE5       29.99R WCI  25
$$
MNZ037-044-045-052-053-162300-
   East Central Minnesota

CITY           SKY/WX    TMP DP  RH WIND       PRES   REMARKS
PRINCETON      CLOUDY    25  19  80 CALM      29.99R
MORA           PTCLDY    21  16  79 CALM      30.00R
CAMBRIDGE      CLOUDY    27  18  69 NE3       29.99R
RUSH CITY      PTCLDY    22  16  78 NE3       30.00R
MOOSE LAKE     CLOUDY    21  12  68 CALM      29.98R
HINCKLEY       CLOUDY    23  18  80 NE5       29.99R WCI  17
CLOQUET        CLOUDY    21  12  68 E8        29.98R WCI  12
MCGREGOR       CLOUDY    23  16  74 SE3       29.99R
$$
MNZ071>073-080-081-089-090-097-098-162300-
   Southwest Minnesota

CITY           SKY/WX    TMP DP  RH WIND       PRES   REMARKS
MONTEVIDEO     CLOUDY    32  27  80 NE5       29.98R WCI  27
GRANITE FALLS  CLOUDY    36  30  80 N6        29.98R
CANBY          CLOUDY    38  32  79 N6        29.97R
MARSHALL       CLOUDY    36  30  79 N9        29.95R
REDWOOD FALLS  CLOUDY    36  29  75 N7        29.95R
OLIVIA         CLOUDY    34  28  80 NE7       29.96R WCI  28
PIPESTONE      CLOUDY    37  30  75 NE7       29.92R
WINDOM           N/A     37  23  56 N13       29.93R
WORTHINGTON    PTCLDY    39  30  70 N14       29.93R
JACKSON        PTCLDY    37  30  75 N7        29.94R
SLAYTON        PTCLDY    37  31  79 N10       29.93R
$$
MNZ065>067-074>077-082>085-091>093-162300-
   South Central Minnesota

CITY           SKY/WX    TMP DP  RH WIND       PRES   REMARKS
MANKATO        MOCLDY    30  27  86 NE8       29.95R WCI  23
NEW ULM        CLOUDY    34  27  75 N8        29.94S WCI  27
ST JAMES       MOCLDY    36  28  75 N9        29.94R
FAIRMONT       PTCLDY    37  29  72 N13       29.92R
GLENCOE        CLOUDY    30  30 100 NE3       29.97R
FARIBAULT      CLOUDY    30  27  86 N8        29.95R WCI  23
OWATONNA       CLOUDY    32  28  86 NE7       29.93R WCI  26
WASECA         CLOUDY    32  30  93 N8        29.94R WCI  25
ALBERT LEA     CLEAR     37  28  70 NE8       29.91R
$$
MNZ078>079-086>088-094>096-162300-
   Southeast Minnesota

CITY           SKY/WX    TMP DP  RH WIND       PRES   REMARKS
ROCHESTER      CLEAR     31  27  85 E8        29.92R WCI  23
RED WING       PTCLDY    28  19  69 CALM      29.98R
STANTON        CLOUDY    31  27  85 N8        29.96R WCI  23
DODGE CENTER   PTCLDY    30  27  86 NE8       29.92R WCI  23
WINONA         PTCLDY    30  23  74 E3        29.98R
AUSTIN         CLOUDY    36  28  75 CALM      29.91R
PRESTON        CLEAR     32  26  80 NE7       29.92R WCI  25
$$
ABBREVIATIONS USED IN REMARKS
   TC - TEMPERATURES IN CELSIUS
  WCI - WIND CHILL INDEX
   HX - HEAT INDEX
  VSB - VISIBILITY
$$




USA.gov is the U.S. government's official web portal to all federal, state and local government web resources and services.